RH
86 85 84 77 71 63 59 59 54 44 41 44 44 45 47 51 49 49 52 49 54 58
84 88 82 78 68 67 65 61 53 46 47 44 44 44 42 47 45 48 52 51 54 57
84 85 84 77 69 61 60 53 50 44 46 46 41 39 43 46 45 45 51 54 52 53
86 80 77 73 63 58 54 48 40 42 45 42 40 38 37 45 39 42 46 51 50 51
81 77 72 64 59 54 47 44 43 44 42 40 46 45 35 36 40 42 46 47 56 55
79 78 70 60 53 45 42 42 43 44 47 44 40 32 33 37 40 44 45 46 48 51
74 68 59 50 49 44 42 46 42 43 43 48 42 33 38 48 53 54 51 51 54 55
63 55 50 46 45 44 46 43 40 45 40 40 45 44 53 57 58 52 52 53 50 53
46 49 49 49 54 57 60 61 58 60 61 60 57 59 58 56 56 55 55 57 59 59
55 61 56 54 57 62 70 74 80 61 44 54 57 55 55 59 56 58 62 63 65 58
67 69 70 72 76 81 76 60 49 46 50 56 52 56 54 58 60 64 68 67 65 68
76 82 86 91 94 95 94 87 81 70 57 63 57 49 51 61 68 65 70 66 70 72
87 88 94 95 96 97 92 65 46 41 38 44 45 43 40 61 66 70 68 71 70 66
88 86 81 69 46 40 40 37 35 38 42 46 46 49 37 39 62 63 69 74 72 71
Wind_Speed
12 10 10 13 12 10 10 9 11 11 10 11 10 8 7 4 4 5 4 6 4 3
10 10 11 14 12 9 8 8 11 11 11 10 10 9 8 6 6 3 3 5 4 2
13 13 11 11 14 13 11 13 13 13 12 10 9 9 8 6 6 6 3 4 5 3
13 12 14 12 12 13 14 14 14 13 12 10 8 8 7 7 5 6 5 4 5 4
13 12 13 13 13 14 14 13 14 14 12 10 8 3 8 8 7 6 5 4 4 4
13 14 13 14 14 14 15 14 14 13 12 10 7 6 7 7 6 5 4 3 3 3
12 13 13 14 15 14 13 14 12 10 10 9 8 3 4 6 6 5 3 3 1 2
10 13 12 14 13 13 12 11 12 12 10 8 7 5 4 5 5 4 2 2 1 2
14 15 14 15 15 15 15 14 13 10 9 8 4 10 10 5 3 3 2 2 3 4
16 15 15 16 16 14 13 12 10 7 6 6 4 10 8 6 2 3 2 1 3 4
16 17 15 16 15 12 9 10 9 8 6 4 3 9 7 6 3 3 1 1 1 2
15 15 14 14 11 10 10 6 6 6 6 6 3 7 6 5 2 1 2 3 4 5
13 14 13 13 10 5 7 5 5 5 5 7 4 5 3 5 2 1 2 4 5 9
12 11 10 10 7 7 7 5 5 5 3 3 2 3 3 4 3 2 2 3 3 3
Wind_Direction
178 170 170 170 167 169 170 165 163 146 151 146 147 146 136 127 126 127 132 130 122 132
159 162 168 161 158 160 150 150 153 143 143 153 146 141 139 131 122 121 162 139 142 135
173 163 163 158 162 162 148 153 154 143 144 154 150 142 136 139 144 163 185 142 145 144
164 161 153 163 158 153 148 151 152 141 142 149 146 145 136 124 156 160 157 132 163 182
148 153 151 153 157 156 146 154 146 141 143 144 138 160 134 146 172 155 160 169 166 187
151 153 156 147 147 145 143 145 142 140 141 144 148 146 136 147 128 138 134 153 189 213
153 147 150 142 140 139 141 137 133 127 117 96 106 109 112 106 112 113 112 110 136 233
116 116 125 118 118 117 112 108 106 101 98 105 108 127 108 103 114 111 116 60 332 269
108 110 106 100 97 95 92 89 90 90 107 102 123 125 115 113 112 108 67 356 318 296
103 98 99 99 95 94 96 99 104 112 122 106 120 124 122 118 89 82 51 313 304 310
100 97 94 92 92 89 91 107 121 106 96 109 160 137 134 114 87 75 359 319 306 295
94 101 99 95 97 96 97 91 102 126 149 160 168 154 150 129 121 36 323 293 307 291
94 97 96 99 105 120 111 139 156 131 123 172 183 207 195 158 182 294 309 316 312 325
80 93 110 121 145 118 107 110 93 97 81 93 171 307 306 307 196 262 320 315 314 308